Location: Newark
(42.8481°N, 0.4872°E)
Time: 22:31:59
(UTC+00:00)

SR - Pass Details

Date: 08 November 2020
Orbit: 579 x 876 km, 66.7° (Epoch: 28 November)

Event Time Altitude Azimuth Distance (km) Brightness Sun altitude
Rises 07:05:53 0° 337° (NNW) 3,078 ? 3.2°
Reaches altitude 10° 07:08:28 10° 350° (N) 2,209 ? 3.6°
Maximum altitude 07:12:47 27° 48° (NE) 1,420 ? 4.3°
Drops below altitude 10° 07:17:22 10° 106° (ESE) 2,368 ? 5.1°
Sets 07:20:14 0° 118° (ESE) 3,342 ? 5.5°
